Anchorage, AK

4:15 AM AKST on December 04, 2016 (GMT -0900)
Merrill

Weather History for PAMR - August, 2014

Change the Weather History Date:

Friday, August 8, 2014

  Actual Average Record
Temperature  
Mean Temperature 60 °F -  
Max Temperature 62 °F 65 °F 78 °F (2003)
Min Temperature 57 °F 51 °F 43 °F (2008)
Degree Days  
Heating Degree Days 6    
Growing Degree Days 10 (Base 50)    
Moisture  
Dew Point 50 °F    
Average Humidity 72    
Maximum Humidity 81    
Minimum Humidity 62    
Precipitation  
Precipitation 0.00 in - - ()
Sea Level Pressure  
Sea Level Pressure 29.60 in    
Wind  
Wind Speed 3 mph (West)    
Max Wind Speed 7 mph    
Max Gust Speed -    
Visibility 10 miles    
Events Rain    
Averages and records for this station are not official NWS values.
T = Trace of Precipitation, MM = Missing Value Source: NWS Daily Summary

Daily Weather History Graph

Daily Weather History Graph

Search for Another Location

Airport or City:

Trip Planner

Search our weather history database for the weather conditions in past years. The results will help you decide how hot, cold, wet, or windy it might be!

Date:

Astronomy

Aug. 08, 2014 Rise Set
Actual Time 5:50 AM AKDT 10:18 PM AKDT
Civil Twilight 4:50 AM AKDT 11:16 PM AKDT
Nautical Twilight 2:57 AM AKDT 1:03 AM AKDT
Astronomical Twilight Sun does not rise Sun does not rise
Moon 8:40 PM AKDT (8/8) 3:22 AM AKDT (8/8)
Length of Visible Light 18h 26m
Length of Day
16h 27m
Waxing Gibbous, 94% of the Moon is Illuminated
Aug 8
Waxing Gibbous
Aug 10
Full
Aug 17
Last Quarter
Aug 25
New
Sep 2
First Quarter

Hourly Weather History & Observations

Time (AKDT) Temp. Dew Point Humidity Pressure Visibility Wind Dir Wind Speed Gust Speed Precip Events Conditions
12:53 AM 60.1 °F 48.9 °F 67% 29.64 in 10.0 mi Calm Calm - N/A   Mostly Cloudy
1:53 AM 59.0 °F 48.9 °F 69% 29.64 in 10.0 mi NW 5.8 mph - N/A   Mostly Cloudy
2:53 AM 59.0 °F 48.9 °F 69% 29.63 in 10.0 mi Calm Calm - 0.00 in   Mostly Cloudy
3:53 AM 57.9 °F 48.9 °F 72% 29.61 in 10.0 mi Calm Calm - N/A   Mostly Cloudy
4:53 AM 57.9 °F 48.0 °F 70% 29.61 in 10.0 mi Variable 3.5 mph - N/A   Mostly Cloudy
5:53 AM 57.0 °F 50.0 °F 77% 29.60 in 10.0 mi Variable 3.5 mph - 0.00 in Rain Light Rain
6:53 AM 57.0 °F 50.0 °F 77% 29.60 in 10.0 mi Calm Calm - 0.00 in   Overcast
7:53 AM 57.0 °F 51.1 °F 81% 29.59 in 10.0 mi WNW 3.5 mph - 0.00 in Rain Light Rain
8:53 AM 57.0 °F 50.0 °F 77% 29.59 in 10.0 mi West 3.5 mph - 0.00 in Rain Light Rain
9:53 AM 57.0 °F 50.0 °F 77% 29.59 in 10.0 mi WNW 3.5 mph - 0.00 in   Overcast
10:53 AM 57.9 °F 50.0 °F 75% 29.59 in 10.0 mi West 5.8 mph - N/A   Overcast
11:53 AM 60.1 °F 51.1 °F 72% 29.60 in 10.0 mi WNW 5.8 mph - N/A   Overcast
12:53 PM 60.1 °F 52.0 °F 75% 29.61 in 10.0 mi West 3.5 mph - N/A   Overcast
1:53 PM 60.1 °F 51.1 °F 72% 29.61 in 10.0 mi West 5.8 mph - N/A   Overcast
2:53 PM 61.0 °F 51.1 °F 70% 29.61 in 10.0 mi WSW 4.6 mph - N/A   Overcast
3:53 PM 60.1 °F 48.9 °F 67% 29.61 in 10.0 mi Calm Calm - N/A   Mostly Cloudy
4:53 PM 62.1 °F 48.9 °F 62% 29.60 in 10.0 mi West 6.9 mph - N/A   Mostly Cloudy
5:53 PM 61.0 °F 48.9 °F 64% 29.60 in 10.0 mi WNW 4.6 mph - N/A   Mostly Cloudy
6:53 PM 61.0 °F 48.9 °F 64% 29.60 in 10.0 mi Calm Calm - N/A   Mostly Cloudy
7:53 PM 60.1 °F 50.0 °F 69% 29.59 in 10.0 mi WSW 3.5 mph - N/A   Scattered Clouds
8:53 PM 60.1 °F 51.1 °F 72% 29.58 in 10.0 mi Calm Calm - N/A   Mostly Cloudy
9:53 PM 60.1 °F 51.1 °F 72% 29.59 in 10.0 mi Calm Calm - N/A   Overcast
10:53 PM 60.1 °F 52.0 °F 75% 29.59 in 10.0 mi West 4.6 mph - N/A   Overcast
11:53 PM 59.0 °F 50.0 °F 72% 29.59 in 10.0 mi WNW 4.6 mph - N/A   Overcast